Location: Newark
(25.6667°N, 138.4167°E)
Time: 18:52:11
(UTC+00:00)

ISS - Visible Passes

Search period start: 17 October 2019 00:00
Search period end: 27 October 2019 00:00
Orbit: 411 x 421 km, 51.6° (Epoch: 17 October)

Date Brightness Start Highest point End Pass type
(mag) Time Alt. Az. Time Alt. Az. Time Alt. Az.
20 Oct -1.6 20:14:32 10° S 20:17:31 29° SE 20:20:29 10° ENE visible
21 Oct -0.7 19:27:09 10° SSE 19:29:05 14° SE 19:30:59 10° E visible
22 Oct -3.7 20:13:39 10° SW 20:16:58 60° NW 20:20:17 10° NNE visible
23 Oct -3.3 19:27:05 31° SSW 19:28:26 59° SE 19:31:44 10° NE visible
24 Oct -0.8 18:41:46 17° E 18:41:46 17° E 18:42:49 10° ENE visible
24 Oct -2.0 20:14:44 12° W 20:16:38 17° NW 20:18:57 10° N visible
25 Oct -2.2 19:29:06 25° N 19:29:06 25° N 19:31:01 10° NNE visible
